• Processing (Info)

  • MPEC 2017-V37 : 2017 VV

    The following Minor Planet Electronic Circular may be linked-to from your own Web pages, but must not otherwise be redistributed electronically.

    A form allowing access to any MPEC is at the bottom of this page.


    Read MPEC 2017-V36 Read MPEC 2017-V38


    M.P.E.C. 2017-V37                                Issued 2017 Nov. 10, 16:16 UT
    
         The Minor Planet Electronic Circulars contain information on unusual
             minor planets and routine data on comets.  They are published
        on behalf of Division F of the International Astronomical Union by the
              Minor Planet Center, Smithsonian Astrophysical Observatory,
                              Cambridge, MA 02138, U.S.A.
    
                 Prepared using the Tamkin Foundation Computer Network
    
                                  MPC@CFA.HARVARD.EDU
                URL https://www.minorplanetcenter.net/    ISSN 1523-6714
    
                                        2017 VV
    
    Observations:
         K17V00V* C2017 11 07.34794 01 03 27.313-19 07 30.45         20.2 iLEV037F51
         K17V00V  C2017 11 07.35769 01 03 27.028-19 06 48.84         20.0 iLEV037F51
         K17V00V  C2017 11 07.36740 01 03 26.751-19 06 07.61         20.1 iLEV037F51
         K17V00V  C2017 11 07.37712 01 03 26.463-19 05 25.87         19.9 iLEV037F51
         K17V00V KC2017 11 08.53312 01 03 05.64 -17 44 39.3          19.9 RUEV037474
         K17V00V KC2017 11 08.53548 01 03 05.63 -17 44 29.8          20.1 RUEV037474
         K17V00V KC2017 11 08.54020 01 03 05.57 -17 44 09.5          20.5 RUEV037474
         K17V00V KC2017 11 08.54255 01 03 05.45 -17 44 00.2          19.7 RUEV037474
         K17V00V KC2017 11 09.12130 01 02 57.99 -17 05 27.0          20.1 RqEV037734
         K17V00V KC2017 11 09.12673 01 02 57.88 -17 05 05.6          19.9 RqEV037734
         K17V00V KC2017 11 09.13258 01 02 57.79 -17 04 42.2          19.7 RqEV037734
         K17V00V KC2017 11 09.14594201 02 57.35 -17 03 48.8          20.5 VuEV037H21
         K17V00V KC2017 11 09.15284901 02 57.22 -17 03 21.1          20.3 VuEV037H21
         K17V00V KC2017 11 09.15853501 02 57.10 -17 02 58.7          20.7 VuEV037H21
         K17V00V  C2017 11 10.25281 01 02 44.16 -15 51 27.8          21.3 RoEV037926
         K17V00V  C2017 11 10.25948 01 02 44.00 -15 51 02.0          21.1 RoEV037926
         K17V00V  C2017 11 10.26657 01 02 43.93 -15 50 34.6          21.0 RoEV037926
    
    Observer details:
    474 Mount John Observatory, Lake Tekapo.  Observers A. C. Gilmore,
        P. M. Kilmartin.  Measurer P. M. Kilmartin.  1.0-m f/7.7 reflector + CCD.
    734 Farpoint Observatory.  Observer G. Hug.  0.69-m reflector + CCD.
    926 Tenagra II Observatory.  Observers M. Schwartz, P. R. Holvorcem.  Measurer
        M. Schwartz.  0.81-m f/7 Ritchey-Chretien + CCD.
    F51 Pan-STARRS 1, Haleakala.  Observers J. Bulger, T. Lowe, A. Schultz,
        M. Willman.  Measurers K. Chambers, S. Chastel, L. Denneau, H. Flewelling,
        M. Huber, E. Lilly, E. Magnier, R. Wainscoat, C. Waters, R. Weryk.  1.8-m
        Ritchey-Chretien + CCD.
    H21 Astronomical Research Observatory, Westfield.  Observer R. Holmes.
        Measurers S. Foglia, L. Buzzi, T. Linder, R. Holmes.  0.81-m f/4.0
        astrograph + CCD.
    
    Orbital elements:
    2017 VV                                             PHA, Earth MOID = 0.0241 AU
    Epoch 2017 Sept. 4.0 TT = JDT 2458000.5                 MPC
    M   6.39535              (2000.0)            P               Q
    n   0.38469862     Peri.  245.09130     +0.47272456     +0.83726165
    a   1.8723583      Node    55.92480     -0.64019406     +0.54060754
    e   0.5555119      Incl.   19.37705     -0.60554360     +0.08207569
    P   2.56           H   20.4           G   0.15           U   8
    Residuals in seconds of arc
    171107 F51  0.0   0.0     171108 474  1.1+  0.8+    171109 H21  0.1+  0.0
    171107 F51  0.0   0.0     171108 474  0.0   0.5+    171109 H21  0.0   0.3-
    171107 F51  0.0   0.2-    171109 734  0.2-  0.1-    171110 926  0.1+  0.0
    171107 F51  0.2-  0.1+    171109 734  0.3-  0.4-    171110 926  0.6-  0.1+
    171108 474  0.1-  0.0     171109 734  0.1+  0.3-    171110 926  0.1+  0.2+
    171108 474  0.5+  0.1-    171109 H21  0.1-  0.1-
    
    Ephemeris:
    2017 VV                  a,e,i = 1.87, 0.56, 19                  q = 0.8322
    Date    TT    R. A. (2000) Decl.     Delta      r     Elong.  Phase     V
    2017 10 11    02 15 34.7 -67 26 09   0.2700  1.0979   104.6    61.6    20.0
    ...
    2017 10 26    01 13 59.1 -37 20 02   0.3190  1.2207   129.1    39.2    19.9
    ...
    2017 11 03    01 05 33.1 -24 41 34   0.3783  1.2878   135.0    33.0    20.2
    ...
    2017 11 09    01 02 59.3 -17 13 20   0.4350  1.3381   136.0    30.9    20.6
    2017 11 10    01 02 47.0 -16 07 32   0.4453  1.3465   136.0    30.8    20.6
    2017 11 11    01 02 38.0 -15 04 04   0.4559  1.3549   135.8    30.6    20.7
    ...
    2017 11 17    01 02 46.0 -09 26 54   0.5239  1.4049   134.2    30.3    21.0
    ...
    2017 11 25    01 05 14.1 -03 31 51   0.6254  1.4710   130.3    30.8    21.5
    ...
    2017 12 10    01 14 58.2 +04 22 41   0.8422  1.5919   121.0    32.0    22.4
    
    A. U. Tomatic                (C) Copyright 2017 MPC           M.P.E.C. 2017-V37
    

    Read MPEC 2017-V36 Read MPEC 2017-V38


    MPEC number:

    Enter an MPEC number in one of the following forms:

    • 1997-B01 (the full form)
    • J97B01 (the packed version of the full form)
    • B01 (the abbreviated form)